Location: Del Amo
(33.8464°N, 118.2104°W)
Time: 18:55:36
(UTC+00:00)

S-56A Canister/Altair - Pass Details

Date: 16 September 2024
Orbit: 636 x 2487 km, 38.9° (Epoch: 14 October)

Event Time Altitude Azimuth Distance (km) Brightness Sun altitude
Rises 03:16:18 0° 268° (W) 3,254 12.2 -16.8°
Reaches altitude 10° 03:18:26 10° 272° (W) 2,468 11.3 -17.2°
Maximum altitude 03:24:13 62° 353° (N) 1,201 8.5 -18.4°
Enters shadow 03:30:17 20° 70° (ENE) 2,761 9.9 -19.6°
Drops below altitude 10° 03:32:55 10° 74° (ENE) 3,659 - -20.1°
Sets 03:36:45 0° 77° (ENE) 4,954 - -20.9°
